����,���ϕ���(m/s),���ϕ���,�ő�u�ԕ���(m/s),�ő啗��������,�C��(��),���x(%),10���Ԉړ��ώZ�J��(mm),1���Ԉړ��ώZ�J��(mm),���J��(mm),�݌v�J��(mm),����(���ώZ)(MJ/m2),����(���ώZ)(min),���n�C��(hPa),�C�ʋC��(hPa)
2023-05-29T00:00:00+09:00,4.8,��쐼,7.5,��쐼,20.6,84.2,0,0,0,0,14.69,286,1002.9,1016.5
2023-05-29T00:01:00+09:00,4.9,��쐼,7.5,��쐼,20.6,84.3,0,0,0,0,0,0,1002.8,1016.4
2023-05-29T00:02:00+09:00,4.8,��쐼,7.5,��쐼,20.6,84.4,0,0,0,0,0,0,1002.9,1016.5
2023-05-29T00:03:00+09:00,4.8,��쐼,7.5,��쐼,20.6,84.4,0,0,0,0,0,0,1002.8,1016.4
2023-05-29T00:04:00+09:00,4.7,��쐼,7.5,��쐼,20.6,84.5,0,0,0,0,0,0,1002.8,1016.4
2023-05-29T00:05:00+09:00,4.5,��쐼,7.5,��쐼,20.6,84.6,0,0,0,0,0,0,1002.9,1016.5
2023-05-29T00:06:00+09:00,4.3,��쐼,6.7,��쐼,20.6,84.7,0,0,0,0,0,0,1002.9,1016.5
2023-05-29T00:07:00+09:00,4.4,��쐼,6.7,��쐼,20.6,84.6,0,0,0,0,0,0,1002.9,1016.5
2023-05-29T00:08:00+09:00,4.4,��쐼,6.7,��쐼,20.6,84.5,0,0,0,0,0,0,1002.9,1016.5
2023-05-29T00:09:00+09:00,4.4,��쐼,6.6,��,20.6,84.5,0,0,0,0,0,0,1002.8,1016.4
2023-05-29T00:10:00+09:00,4.4,��쐼,6.6,��,20.6,84.5,0,0,0,0,0,0,1002.8,1016.4
2023-05-29T00:11:00+09:00,4.3,��쐼,6.6,��,20.6,84.5,0,0,0,0,0,0,1002.8,1016.4
2023-05-29T00:12:00+09:00,4.4,��쐼,6.6,��,20.6,84.6,0,0,0,0,0,0,1002.8,1016.4
2023-05-29T00:13:00+09:00,4.4,��쐼,6.6,��,20.6,84.6,0,0,0,0,0,0,1002.8,1016.4
2023-05-29T00:14:00+09:00,4.4,��쐼,6.6,��,20.6,84.6,0,0,0,0,0,0,1002.9,1016.5
2023-05-29T00:15:00+09:00,4.6,��쐼,6.6,��,20.6,84.5,0,0,0,0,0,0,1002.9,1016.5
2023-05-29T00:16:00+09:00,4.6,��쐼,6.6,��,20.6,84.4,0,0,0,0,0,0,1002.9,1016.5
2023-05-29T00:17:00+09:00,4.4,��쐼,6.6,��,20.6,84.3,0,0,0,0,0,0,1003,1016.6
2023-05-29T00:18:00+09:00,4.4,��쐼,6.6,��,20.6,84.1,0,0,0,0,0,0,1002.9,1016.5
2023-05-29T00:19:00+09:00,4.3,��쐼,6.6,��쐼,20.6,84,0,0,0,0,0,0,1002.9,1016.5
2023-05-29T00:20:00+09:00,4.2,��쐼,6.6,��쐼,20.6,84.1,0,0,0,0,0,0,1002.9,1016.5
2023-05-29T00:21:00+09:00,4.1,��쐼,6.6,��쐼,20.6,84,0,0,0,0,0,0,1002.8,1016.4
2023-05-29T00:22:00+09:00,4.1,��쐼,6.6,��쐼,20.6,84,0,0,0,0,0,0,1002.8,1016.4
2023-05-29T00:23:00+09:00,4.2,��쐼,6.6,��쐼,20.6,84,0,0,0,0,0,0,1002.8,1016.4
2023-05-29T00:24:00+09:00,4.1,��쐼,6.6,��쐼,20.6,84,0,0,0,0,0,0,1002.8,1016.4
2023-05-29T00:25:00+09:00,4,��쐼,6.4,��,20.6,84.1,0,0,0,0,0,0,1002.8,1016.4
2023-05-29T00:26:00+09:00,4,��쐼,6.4,��,20.6,84,0,0,0,0,0,0,1002.8,1016.4
2023-05-29T00:27:00+09:00,4.2,��쐼,6.4,��,20.6,84,0,0,0,0,0,0,1002.8,1016.4
2023-05-29T00:28:00+09:00,4.2,��쐼,6.4,��,20.6,84,0,0,0,0,0,0,1002.8,1016.4
2023-05-29T00:29:00+09:00,4.1,��쐼,6.4,��,20.6,84,0,0,0,0,0,0,1002.8,1016.4
2023-05-29T00:30:00+09:00,4.1,��쐼,6.4,��,20.6,84,0,0,0,0,0,0,1002.7,1016.3
2023-05-29T00:31:00+09:00,4.2,��쐼,6.4,��,20.5,84,0,0,0,0,0,0,1002.7,1016.3
2023-05-29T00:32:00+09:00,4.2,��쐼,6.2,��쐼,20.5,84.1,0,0,0,0,0,0,1002.7,1016.3
2023-05-29T00:33:00+09:00,4.1,��쐼,5.8,��,20.6,84.2,0,0,0,0,0,0,1002.7,1016.3
2023-05-29T00:34:00+09:00,4.1,��쐼,5.8,��,20.5,84.2,0,0,0,0,0,0,1002.7,1016.3
2023-05-29T00:35:00+09:00,4.1,��쐼,5.8,��,20.5,84.2,0,0,0,0,0,0,1002.6,1016.2
2023-05-29T00:36:00+09:00,4.1,��쐼,5.8,��,20.5,84.2,0,0,0,0,0,0,1002.6,1016.2
2023-05-29T00:37:00+09:00,4,��쐼,5.6,��쐼,20.5,84.3,0,0,0,0,0,0,1002.6,1016.2
2023-05-29T00:38:00+09:00,3.9,��쐼,5.6,��쐼,20.5,84.4,0,0,0,0,0,0,1002.6,1016.2
2023-05-29T00:39:00+09:00,3.9,��쐼,5.6,��쐼,20.6,84.5,0,0,0,0,0,0,1002.6,1016.2
2023-05-29T00:40:00+09:00,3.8,��쐼,5.6,��쐼,20.6,84.4,0,0,0,0,0,0,1002.6,1016.2
2023-05-29T00:41:00+09:00,3.8,��쐼,5.6,��쐼,20.5,84.4,0,0,0,0,0,0,1002.5,1016.1
2023-05-29T00:42:00+09:00,3.7,��,5.6,��쐼,20.5,84.5,0,0,0,0,0,0,1002.5,1016.1
2023-05-29T00:43:00+09:00,3.7,��,6.6,��,20.5,84.6,0,0,0,0,0,0,1002.5,1016.1
2023-05-29T00:44:00+09:00,3.6,��,6.6,��,20.5,84.7,0,0,0,0,0,0,1002.5,1016.1
2023-05-29T00:45:00+09:00,3.6,��쐼,6.6,��,20.5,84.7,0,0,0,0,0,0,1002.5,1016.1
2023-05-29T00:46:00+09:00,3.7,��쐼,6.6,��,20.5,84.8,0,0,0,0,0,0,1002.4,1016
2023-05-29T00:47:00+09:00,3.6,��쐼,6.6,��,20.5,84.8,0,0,0,0,0,0,1002.4,1016
2023-05-29T00:48:00+09:00,3.7,��쐼,6.6,��,20.5,84.9,0,0,0,0,0,0,1002.4,1016
2023-05-29T00:49:00+09:00,3.8,��쐼,6.6,��,20.5,84.9,0,0,0,0,0,0,1002.3,1015.9
2023-05-29T00:50:00+09:00,3.9,��쐼,6.8,��,20.5,84.8,0,0,0,0,0,0,1002.3,1015.9
2023-05-29T00:51:00+09:00,3.9,��쐼,6.8,��,20.5,84.9,0,0,0,0,0,0,1002.3,1015.9
2023-05-29T00:52:00+09:00,3.9,��쐼,6.8,��,20.4,85,0,0,0,0,0,0,1002.3,1015.9
2023-05-29T00:53:00+09:00,3.9,��쐼,6.8,��,20.5,85.1,0,0,0,0,0,0,1002.3,1015.9
2023-05-29T00:54:00+09:00,4,��쐼,6.8,��,20.5,85.2,0,0,0,0,0,0,1002.3,1015.9
2023-05-29T00:55:00+09:00,4,��쐼,6.8,��,20.5,85.3,0,0,0,0,0,0,1002.3,1015.9
2023-05-29T00:56:00+09:00,4.1,��쐼,6.8,��,20.5,85.2,0,0,0,0,0,0,1002.3,1015.9
2023-05-29T00:57:00+09:00,4.1,��쐼,6.8,��,20.5,85.2,0,0,0,0,0,0,1002.3,1015.9
2023-05-29T00:58:00+09:00,4.2,��쐼,6.8,��,20.5,85.3,0,0,0,0,0,0,1002.2,1015.8
2023-05-29T00:59:00+09:00,4.2,��쐼,6.8,��,20.4,85.3,0,0,0,0,0,0,1002.2,1015.8
2023-05-29T01:00:00+09:00,4.1,��쐼,6.6,��,20.5,85.4,0,0,0,0,0,0,1002.2,1015.8
2023-05-29T01:01:00+09:00,4.2,��쐼,6.6,��,20.5,85.5,0,0,0,0,0,0,1002.2,1015.8
2023-05-29T01:02:00+09:00,4.3,��쐼,6.6,��,20.4,85.4,0,0,0,0,0,0,1002.2,1015.8
2023-05-29T01:03:00+09:00,4.3,��쐼,6.6,��,20.5,85.4,0,0,0,0,0,0,1002.1,1015.7
2023-05-29T01:04:00+09:00,4.3,��쐼,6.6,��,20.4,85.5,0,0,0,0,0,0,1002.1,1015.7
2023-05-29T01:05:00+09:00,4.4,��쐼,6.6,��,20.4,85.6,0,0,0,0,0,0,1002.1,1015.7
2023-05-29T01:06:00+09:00,4.3,��쐼,6.6,��,20.4,85.6,0,0,0,0,0,0,1002.1,1015.7
2023-05-29T01:07:00+09:00,4.3,��쐼,6.6,��,20.4,85.6,0,0,0,0,0,0,1002,1015.6
2023-05-29T01:08:00+09:00,4.2,��쐼,6.6,��,20.4,85.6,0,0,0,0,0,0,1002,1015.6
2023-05-29T01:09:00+09:00,4.2,��쐼,6.5,��,20.4,85.7,0,0,0,0,0,0,1002,1015.6
2023-05-29T01:10:00+09:00,4.2,��쐼,6.5,��,20.4,85.7,0,0,0,0,0,0,1002,1015.6
2023-05-29T01:11:00+09:00,4.3,��쐼,6.5,��,20.4,85.8,0,0,0,0,0,0,1002,1015.6
2023-05-29T01:12:00+09:00,4.2,��쐼,6.4,��쐼,20.4,85.8,0,0,0,0,0,0,1002,1015.6
2023-05-29T01:13:00+09:00,4.3,��쐼,6.4,��쐼,20.4,85.8,0,0,0,0,0,0,1002,1015.6
2023-05-29T01:14:00+09:00,4.4,��쐼,7.1,��쐼,20.4,85.9,0,0,0,0,0,0,1002,1015.6
2023-05-29T01:15:00+09:00,4.5,��쐼,7.1,��쐼,20.4,85.9,0,0,0,0,0,0,1002,1015.6
2023-05-29T01:16:00+09:00,4.6,��쐼,7.1,��쐼,20.4,85.9,0,0,0,0,0,0,1001.9,1015.5
2023-05-29T01:17:00+09:00,4.8,��쐼,7.1,��쐼,20.4,85.8,0,0,0,0,0,0,1001.9,1015.5
2023-05-29T01:18:00+09:00,4.8,��쐼,7.1,��쐼,20.4,85.8,0,0,0,0,0,0,1001.9,1015.5
2023-05-29T01:19:00+09:00,4.7,��쐼,7.1,��쐼,20.4,85.9,0,0,0,0,0,0,1001.9,1015.5
2023-05-29T01:20:00+09:00,4.7,��쐼,7.1,��쐼,20.4,86.1,0,0,0,0,0,0,1001.9,1015.5
2023-05-29T01:21:00+09:00,4.7,��쐼,7.1,��쐼,20.4,86.1,0,0,0,0,0,0,1001.9,1015.5
2023-05-29T01:22:00+09:00,4.6,��쐼,7.1,��쐼,20.4,86.1,0,0,0,0,0,0,1001.9,1015.5
2023-05-29T01:23:00+09:00,4.6,��쐼,7.1,��쐼,20.4,86.1,0,0,0,0,0,0,1001.9,1015.5
2023-05-29T01:24:00+09:00,,,,,,,,,,,,,,
2023-05-29T01:25:00+09:00,4.3,��쐼,6.5,��쐼,20.4,86.2,0,0,0,0,0,0,1001.9,1015.5
2023-05-29T01:26:00+09:00,4.2,��쐼,6.5,��쐼,20.4,86.2,0,0,0,0,0,0,1001.9,1015.5
2023-05-29T01:27:00+09:00,4,��쐼,6,��,20.4,86.1,0,0,0,0,0,0,1001.9,1015.5
2023-05-29T01:28:00+09:00,3.8,��쐼,5.8,��,20.4,86.2,0,0,0,0,0,0,1001.9,1015.5
2023-05-29T01:29:00+09:00,3.8,��쐼,5.8,��,20.4,86.3,0,0,0,0,0,0,1001.9,1015.5
2023-05-29T01:30:00+09:00,3.8,��쐼,5.8,��,20.4,86.3,0,0,0,0,0,0,1001.9,1015.5
2023-05-29T01:31:00+09:00,3.8,��쐼,5.9,��,20.4,86.3,0,0,0,0,0,0,1001.9,1015.5
2023-05-29T01:32:00+09:00,3.9,��쐼,7.6,��,20.4,86.3,0,0,0,0,0,0,1001.8,1015.4
2023-05-29T01:33:00+09:00,3.9,��쐼,7.6,��,20.4,86.4,0,0,0,0,0,0,1001.8,1015.4
2023-05-29T01:34:00+09:00,4,��쐼,7.6,��,20.4,86.5,0,0,0,0,0,0,1001.8,1015.4
2023-05-29T01:35:00+09:00,4,��쐼,7.6,��,20.4,86.4,0,0,0,0,0,0,1001.8,1015.4
2023-05-29T01:36:00+09:00,4,��쐼,7.6,��,20.4,86.5,0,0,0,0,0,0,1001.8,1015.4
2023-05-29T01:37:00+09:00,4.1,��쐼,7.6,��,20.3,86.5,0,0,0,0,0,0,1001.8,1015.4
2023-05-29T01:38:00+09:00,4.2,��쐼,7.6,��,20.3,86.6,0,0,0,0,0,0,1001.8,1015.4
2023-05-29T01:39:00+09:00,4.3,��쐼,7.6,��,20.3,86.7,0,0,0,0,0,0,1001.7,1015.3
2023-05-29T01:40:00+09:00,4.4,��쐼,7.6,��,20.3,86.8,0,0,0,0,0,0,1001.7,1015.3
2023-05-29T01:41:00+09:00,4.5,��쐼,7.6,��,20.3,86.9,0,0,0,0,0,0,1001.6,1015.2
2023-05-29T01:42:00+09:00,4.5,��쐼,7.2,��쐼,20.3,87,0,0,0,0,0,0,1001.6,1015.2
2023-05-29T01:43:00+09:00,4.5,��쐼,7.2,��쐼,20.3,87.1,0,0,0,0,0,0,1001.6,1015.2
2023-05-29T01:44:00+09:00,4.6,��,7.2,��쐼,20.3,87.1,0,0,0,0,0,0,1001.6,1015.2
2023-05-29T01:45:00+09:00,4.6,��,7.2,��쐼,20.3,87,0,0,0,0,0,0,1001.6,1015.2
2023-05-29T01:46:00+09:00,4.6,��,7.2,��쐼,20.3,87,0,0,0,0,0,0,1001.6,1015.2
2023-05-29T01:47:00+09:00,4.7,��,7.2,��쐼,20.3,87,0,0,0,0,0,0,1001.6,1015.2
2023-05-29T01:48:00+09:00,4.7,��,7.2,��쐼,20.3,87.1,0,0,0,0,0,0,1001.6,1015.2
2023-05-29T01:49:00+09:00,4.5,��,7.2,��쐼,20.3,87.3,0,0,0,0,0,0,1001.6,1015.2
2023-05-29T01:50:00+09:00,4.5,��,7.2,��쐼,20.3,87.3,0,0,0,0,0,0,1001.6,1015.2
2023-05-29T01:51:00+09:00,4.4,��,7.2,��,20.3,87.3,0,0,0,0,0,0,1001.6,1015.2
2023-05-29T01:52:00+09:00,4.3,��,7.2,��,20.3,87.5,0,0,0,0,0,0,1001.6,1015.2
2023-05-29T01:53:00+09:00,4.3,��,7.2,��,20.3,87.5,0,0,0,0,0,0,1001.6,1015.2
2023-05-29T01:54:00+09:00,4.1,��,6.6,��,20.4,87.7,0,0,0,0,0,0,1001.6,1015.2
2023-05-29T01:55:00+09:00,3.9,��,6.4,��,20.4,87.7,0,0,0,0,0,0,1001.5,1015.1
2023-05-29T01:56:00+09:00,3.7,��,6.4,��,20.3,87.7,0,0,0,0,0,0,1001.5,1015.1
2023-05-29T01:57:00+09:00,3.6,��,6.4,��,20.3,87.6,0,0,0,0,0,0,1001.5,1015.1
2023-05-29T01:58:00+09:00,3.5,��,6.4,��,20.4,87.7,0,0,0,0,0,0,1001.5,1015.1
2023-05-29T01:59:00+09:00,3.4,��,6.4,��,20.4,87.8,0,0,0,0,0,0,1001.5,1015.1
2023-05-29T02:00:00+09:00,3.2,��,6.4,��,20.4,87.8,0,0,0,0,0,0,1001.6,1015.2
2023-05-29T02:01:00+09:00,3,��,6.4,��,20.4,87.6,0,0,0,0,0,0,1001.5,1015.1
2023-05-29T02:02:00+09:00,3,��,6.4,��,20.4,87.5,0,0,0,0,0,0,1001.5,1015.1
2023-05-29T02:03:00+09:00,2.8,��,5.4,��,20.4,87.5,0,0,0,0,0,0,1001.5,1015.1
2023-05-29T02:04:00+09:00,2.9,��,5.4,��,20.3,87.6,0,0,0,0,0,0,1001.5,1015.1
2023-05-29T02:05:00+09:00,2.9,��,5.4,��,20.3,87.6,0,0,0,0,0,0,1001.5,1015.1
2023-05-29T02:06:00+09:00,2.9,��,5.4,��,20.3,87.5,0,0,0,0,0,0,1001.4,1015
2023-05-29T02:07:00+09:00,2.9,��,5.5,��쓌,20.4,87.3,0,0,0,0,0,0,1001.5,1015.1
2023-05-29T02:08:00+09:00,2.9,��,5.5,��쓌,20.3,87.1,0,0,0,0,0,0,1001.4,1015
2023-05-29T02:09:00+09:00,3.1,��,5.5,��쓌,20.3,87,0,0,0,0,0,0,1001.4,1015
2023-05-29T02:10:00+09:00,3.1,��,5.5,��쓌,20.4,87.2,0,0,0,0,0,0,1001.4,1015
2023-05-29T02:11:00+09:00,3.1,��,5.5,��쓌,20.4,87.3,0,0,0,0,0,0,1001.4,1015
2023-05-29T02:12:00+09:00,3,��,5.5,��쓌,20.4,87.3,0,0,0,0,0,0,1001.4,1015
2023-05-29T02:13:00+09:00,2.9,��,5.5,��쓌,20.3,87.1,0,0,0,0,0,0,1001.4,1015
2023-05-29T02:14:00+09:00,2.9,��,5.5,��쓌,20.3,87,0,0,0,0,0,0,1001.3,1014.9
2023-05-29T02:15:00+09:00,2.9,��,5.6,��쐼,20.3,87,0,0,0,0,0,0,1001.3,1014.9
2023-05-29T02:16:00+09:00,3.1,��,6.8,��쐼,20.3,87,0,0,0,0,0,0,1001.1,1014.7
2023-05-29T02:17:00+09:00,3,��,6.8,��쐼,20.3,87,0,0,0,0,0,0,1001.1,1014.7
2023-05-29T02:18:00+09:00,3,��,6.8,��쐼,20.3,87,0,0,0,0,0,0,1001,1014.6
2023-05-29T02:19:00+09:00,2.9,��,6.8,��쐼,20.3,87,0,0,0,0,0,0,1001,1014.6
2023-05-29T02:20:00+09:00,3.1,��,6.8,��쐼,20.2,87.1,0,0,0,0,0,0,1001,1014.6
2023-05-29T02:21:00+09:00,3.1,��,6.8,��쐼,20.3,87.2,0,0,0,0,0,0,1001,1014.6
2023-05-29T02:22:00+09:00,3.4,��,7.9,��,20.3,87.3,0,0,0,0,0,0,1001.1,1014.7
2023-05-29T02:23:00+09:00,3.7,��,7.9,��,20.3,87.2,0,0,0,0,0,0,1001.1,1014.7
2023-05-29T02:24:00+09:00,3.9,��,7.9,��,20.3,87.2,0,0,0,0,0,0,1001.2,1014.8
2023-05-29T02:25:00+09:00,3.8,��,7.9,��,20.3,87.2,0,0,0,0,0,0,1001.2,1014.8
2023-05-29T02:26:00+09:00,3.7,��,7.9,��,20.3,87.2,0,0,0,0,0,0,1001.2,1014.8
2023-05-29T02:27:00+09:00,3.9,��,7.9,��,20.3,87.3,0,0,0,0,0,0,1001.2,1014.8
2023-05-29T02:28:00+09:00,4,��,7.9,��,20.3,87.3,0,0,0,0,0,0,1001.2,1014.8
2023-05-29T02:29:00+09:00,3.9,��,7.9,��,20.3,87.4,0,0,0,0,0,0,1001.2,1014.8
2023-05-29T02:30:00+09:00,3.8,��,7.9,��,20.2,87.5,0,0,0,0,0,0,1001.2,1014.8
2023-05-29T02:31:00+09:00,3.7,��,7.9,��,20.2,87.6,0,0,0,0,0,0,1001.1,1014.7
2023-05-29T02:32:00+09:00,3.3,��,7.8,��,20.3,87.7,0,0,0,0,0,0,1001.2,1014.8
2023-05-29T02:33:00+09:00,3.1,��,6.5,��,20.3,87.9,0,0,0,0,0,0,1001.2,1014.8
2023-05-29T02:34:00+09:00,2.9,��,6.5,��,20.3,87.9,0,0,0,0,0,0,1001.2,1014.8
2023-05-29T02:35:00+09:00,2.8,��,6.5,��,20.3,87.9,0,0,0,0,0,0,1001.2,1014.8
2023-05-29T02:36:00+09:00,2.7,��,5.7,��,20.4,87.9,0,0,0,0,0,0,1001.2,1014.8
2023-05-29T02:37:00+09:00,2.6,��,5.8,��쓌,20.3,87.8,0,0,0,0,0,0,1001.2,1014.8
2023-05-29T02:38:00+09:00,2.4,��,5.8,��쓌,20.3,87.7,0,0,0,0,0,0,1001.2,1014.8
2023-05-29T02:39:00+09:00,2.4,��,5.8,��쓌,20.3,87.7,0,0,0,0,0,0,1001.3,1014.9
2023-05-29T02:40:00+09:00,2.3,��,5.8,��쓌,20.3,87.7,0,0,0,0,0,0,1001.2,1014.8
2023-05-29T02:41:00+09:00,2.2,��,5.8,��쓌,20.3,87.8,0,0,0,0,0,0,1001.2,1014.8
2023-05-29T02:42:00+09:00,2.1,��,5.8,��쓌,20.3,87.7,0,0,0,0,0,0,1001.2,1014.8
2023-05-29T02:43:00+09:00,2,��,5.8,��쓌,20.3,87.6,0,0,0,0,0,0,1001.2,1014.8
2023-05-29T02:44:00+09:00,1.9,��쓌,5.8,��쓌,20.3,87.5,0,0,0,0,0,0,1001.2,1014.8
2023-05-29T02:45:00+09:00,1.9,��쓌,5.8,��쓌,20.3,87.3,0,0,0,0,0,0,1001.2,1014.8
2023-05-29T02:46:00+09:00,1.8,��쓌,5.8,��쓌,20.4,87.3,0,0,0,0,0,0,1001.1,1014.7
2023-05-29T02:47:00+09:00,1.5,��쓌,4.9,��쐼,20.3,87.3,0,0,0,0,0,0,1001.2,1014.8
2023-05-29T02:48:00+09:00,1.5,��쓌,4.9,��쐼,20.3,87.2,0,0,0,0,0,0,1001.1,1014.7
2023-05-29T02:49:00+09:00,1.4,��쓌,4.6,��쓌,20.3,87.2,0,0,0,0,0,0,1001.2,1014.8
2023-05-29T02:50:00+09:00,1.3,��쓌,4.5,��,20.4,87.1,0,0,0,0,0,0,1001.1,1014.7
2023-05-29T02:51:00+09:00,1.3,��쓌,4.5,��,20.4,87,0,0,0,0,0,0,1001.1,1014.7
2023-05-29T02:52:00+09:00,1.4,��쓌,4.5,��,20.4,86.8,0,0,0,0,0,0,1001.1,1014.7
2023-05-29T02:53:00+09:00,1.5,��쓌,4.5,��,20.4,86.6,0,0,0,0,0,0,1001.1,1014.7
2023-05-29T02:54:00+09:00,1.4,��쓌,4.5,��,20.4,86.6,0,0,0,0,0,0,1001.1,1014.7
2023-05-29T02:55:00+09:00,1.4,��쓌,4.5,��,20.4,86.7,0,0,0,0,0,0,1001.1,1014.7
2023-05-29T02:56:00+09:00,1.4,��쓌,4.5,��,20.4,86.6,0,0,0,0,0,0,1001.2,1014.8
2023-05-29T02:57:00+09:00,1.5,��쓌,4.5,��,20.4,86.6,0,0,0,0,0,0,1001.1,1014.7
2023-05-29T02:58:00+09:00,1.4,��쓌,3.7,��,20.4,86.6,0,0,0,0,0,0,1001.1,1014.7
2023-05-29T02:59:00+09:00,1.3,��쓌,3.7,��,20.4,86.6,0,0,0,0,0,0,1001,1014.6
2023-05-29T03:00:00+09:00,1.3,��쓌,4.3,��쓌,20.4,86.6,0,0,0,0,0,0,1001,1014.6
2023-05-29T03:01:00+09:00,1.5,��쓌,5.5,��,20.4,86.6,0,0,0,0,0,0,1001,1014.6
2023-05-29T03:02:00+09:00,1.5,��쓌,5.5,��,20.4,86.6,0,0,0,0,0,0,1001.1,1014.7
2023-05-29T03:03:00+09:00,1.5,��쓌,5.5,��,20.4,86.4,0,0,0,0,0,0,1001.1,1014.7
2023-05-29T03:04:00+09:00,1.7,��쓌,5.5,��,20.5,86.2,0,0,0,0,0,0,1001.1,1014.7
2023-05-29T03:05:00+09:00,1.7,��쓌,5.5,��,20.4,86,0,0,0,0,0,0,1001,1014.6
2023-05-29T03:06:00+09:00,1.7,��쓌,5.5,��,20.4,86,0,0,0,0,0,0,1001,1014.6
2023-05-29T03:07:00+09:00,1.9,��쓌,5.5,��,20.4,86,0,0,0,0,0,0,1001.1,1014.7
2023-05-29T03:08:00+09:00,1.9,��,5.5,��,20.4,86.1,0,0,0,0,0,0,1001.1,1014.7
2023-05-29T03:09:00+09:00,2,��,5.5,��,20.5,86.2,0,0,0,0,0,0,1001.1,1014.7
2023-05-29T03:10:00+09:00,2.2,��,5.5,��,20.5,86.1,0,0,0,0,0,0,1001.1,1014.7
2023-05-29T03:11:00+09:00,2.1,��,4.9,��쓌,20.4,86,0,0,0,0,0,0,1001.1,1014.7
2023-05-29T03:12:00+09:00,2,��,4.9,��쓌,20.4,86,0,0,0,0,0,0,1001,1014.6
2023-05-29T03:13:00+09:00,1.9,��,4.6,��,20.4,86,0,0,0,0,0,0,1001,1014.6
2023-05-29T03:14:00+09:00,1.8,��,4.6,��,20.4,86.1,0,0,0,0,0,0,1001,1014.6
2023-05-29T03:15:00+09:00,1.7,��,4.3,��쐼,20.5,86.3,0,0,0,0,0,0,1000.9,1014.5
2023-05-29T03:16:00+09:00,1.6,��,4.3,��쐼,20.5,86.2,0,0,0,0,0,0,1001,1014.6
2023-05-29T03:17:00+09:00,1.5,��,4.3,��쐼,20.5,86.1,0,0,0,0,0,0,1001,1014.6
2023-05-29T03:18:00+09:00,1.5,��,4.3,��쐼,20.5,86.1,0,0,0,0,0,0,1001,1014.6
2023-05-29T03:19:00+09:00,1.5,��,4.3,��쐼,20.5,86.1,0,0,0,0,0,0,1001,1014.6
2023-05-29T03:20:00+09:00,1.4,��,4.1,��쐼,20.5,86,0,0,0,0,0,0,1001,1014.6
2023-05-29T03:21:00+09:00,1.4,��,4.1,��쐼,20.5,85.9,0,0,0,0,0,0,1000.9,1014.5
2023-05-29T03:22:00+09:00,1.3,��쓌,4.1,��쐼,20.5,86.1,0,0,0,0,0,0,1000.9,1014.5
2023-05-29T03:23:00+09:00,1.4,��쓌,4.1,��쐼,20.5,86.2,0,0,0,0,0,0,1000.9,1014.5
2023-05-29T03:24:00+09:00,1.4,��쓌,4.1,��쐼,20.5,86.1,0,0,0,0,0,0,1000.9,1014.5
2023-05-29T03:25:00+09:00,1.5,��쓌,4.1,��쐼,20.5,86,0,0,0,0,0,0,1000.8,1014.4
2023-05-29T03:26:00+09:00,1.5,��쓌,4.1,��쐼,20.5,86,0,0,0,0,0,0,1000.8,1014.4
2023-05-29T03:27:00+09:00,1.5,��쓌,4.1,��쐼,20.5,86.1,0,0,0,0,0,0,1000.9,1014.5
2023-05-29T03:28:00+09:00,1.4,��쓌,4,�쓌,20.6,86.2,0,0,0,0,0,0,1000.9,1014.5
2023-05-29T03:29:00+09:00,1.4,��쓌,4,�쓌,20.6,86.2,0,0,0,0,0,0,1000.9,1014.5
2023-05-29T03:30:00+09:00,1.4,��쓌,4,�쓌,20.6,86,0,0,0,0,0,0,1000.8,1014.4
2023-05-29T03:31:00+09:00,1.4,�쓌,4,�쓌,20.6,86,0,0,0,0,0,0,1000.8,1014.4
2023-05-29T03:32:00+09:00,1.4,��쓌,4,�쓌,20.5,86,0,0,0,0,0,0,1000.7,1014.3
2023-05-29T03:33:00+09:00,1.4,��쓌,4,�쓌,20.6,86,0,0,0,0,0,0,1000.7,1014.3
2023-05-29T03:34:00+09:00,1.4,��쓌,4,�쓌,20.5,86,0,0,0,0,0,0,1000.6,1014.2
2023-05-29T03:35:00+09:00,1.4,��쓌,4,�쓌,20.5,86,0,0,0,0,0,0,1000.6,1014.2
2023-05-29T03:36:00+09:00,1.5,��쓌,4,�쓌,20.5,86.1,0,0,0,0,0,0,1000.5,1014.1
2023-05-29T03:37:00+09:00,1.4,�쓌,3.7,��쓌,20.5,86.2,0,0,0,0,0,0,1000.5,1014.1
2023-05-29T03:38:00+09:00,1.6,��쓌,4.9,��쓌,20.5,86.3,0,0,0,0,0,0,1000.4,1014
2023-05-29T03:39:00+09:00,1.5,�쓌,4.9,��쓌,20.5,86.4,0,0,0,0,0,0,1000.4,1014
2023-05-29T03:40:00+09:00,1.5,�쓌,4.9,��쓌,20.4,86.6,0,0,0,0,0,0,1000.4,1014
2023-05-29T03:41:00+09:00,1.6,��쓌,5.5,��쓌,20.4,86.7,0,0,0,0,0,0,1000.4,1014
2023-05-29T03:42:00+09:00,1.6,��쓌,5.5,��쓌,20.4,86.9,0,0,0,0,0,0,1000.4,1014
2023-05-29T03:43:00+09:00,1.7,��쓌,5.5,��쓌,20.4,87,0,0,0,0,0,0,1000.4,1014
2023-05-29T03:44:00+09:00,1.7,��쓌,5.5,��쓌,20.4,87.1,0,0,0,0,0,0,1000.4,1014
2023-05-29T03:45:00+09:00,1.7,��쓌,5.5,��쓌,20.4,87.3,0,0,0,0,0,0,1000.4,1014
2023-05-29T03:46:00+09:00,1.7,��쓌,5.5,��쓌,20.4,87.3,0,0,0,0,0,0,1000.4,1014
2023-05-29T03:47:00+09:00,1.7,��쓌,5.5,��쓌,20.4,87.4,0,0,0,0,0,0,1000.4,1014
2023-05-29T03:48:00+09:00,1.8,��,5.5,��쓌,20.4,87.4,0,0,0,0,0,0,1000.4,1014
2023-05-29T03:49:00+09:00,1.8,��,5.5,��쓌,20.4,87.5,0,0,0,0,0,0,1000.3,1013.9
2023-05-29T03:50:00+09:00,2,��,5.5,��쓌,20.5,87.6,0,0,0,0,0,0,1000.3,1013.9
2023-05-29T03:51:00+09:00,2.2,��,6.4,��,20.5,87.5,0,0,0,0,0,0,1000.3,1013.9
2023-05-29T03:52:00+09:00,2.3,��,6.4,��,20.4,87.5,0,0,0,0,0,0,1000.3,1013.9
2023-05-29T03:53:00+09:00,2.5,��,6.4,��,20.5,87.6,0,0,0,0,0,0,1000.3,1013.9
2023-05-29T03:54:00+09:00,2.6,��,6.4,��,20.4,87.6,0,0,0,0,0,0,1000.3,1013.9
2023-05-29T03:55:00+09:00,2.7,��,6.4,��,20.5,87.6,0,0,0,0,0,0,1000.4,1014
2023-05-29T03:56:00+09:00,2.8,��,6.4,��,20.5,87.7,0,0,0,0,0,0,1000.3,1013.9
2023-05-29T03:57:00+09:00,2.9,��,6.4,��,20.4,87.7,0,0,0,0,0,0,1000.3,1013.9
2023-05-29T03:58:00+09:00,2.9,��,6.4,��,20.5,87.7,0,0,0,0,0,0,1000.3,1013.9
2023-05-29T03:59:00+09:00,3,��,6.4,��,20.5,87.7,0,0,0,0,0,0,1000.3,1013.9
2023-05-29T04:00:00+09:00,3,��,6.4,��,20.4,87.6,0,0,0,0,0,0,1000.3,1013.9
2023-05-29T04:01:00+09:00,3,��,5.5,��쐼,20.5,87.6,0,0,0,0,0,0,1000.3,1013.9
2023-05-29T04:02:00+09:00,3.1,��,5.8,��,20.5,87.5,0,0,0,0,0,0,1000.3,1013.9
2023-05-29T04:03:00+09:00,3.2,��,5.8,��,20.5,87.5,0,0,0,0,0,0,1000.3,1013.9
2023-05-29T04:04:00+09:00,3.3,��,6.3,��,20.5,87.5,0,0,0,0,0,0,1000.2,1013.8
2023-05-29T04:05:00+09:00,3.4,��,6.4,��,20.5,87.4,0,0,0,0,0,0,1000.3,1013.9
2023-05-29T04:06:00+09:00,3.5,��,6.4,��,20.5,87.3,0,0,0,0,0,0,1000.3,1013.9
2023-05-29T04:07:00+09:00,3.3,��,6.4,��,20.5,87.2,0,0,0,0,0,0,1000.3,1013.9
2023-05-29T04:08:00+09:00,3.4,��,6.4,��,20.5,87.1,0,0,0,0,0,0,1000.3,1013.9
2023-05-29T04:09:00+09:00,3.3,��,6.4,��,20.6,87.3,0,0,0,0,0,0,1000.3,1013.9
2023-05-29T04:10:00+09:00,3.2,��,6.4,��,20.6,87.4,0,0,0,0,0,0,1000.3,1013.9
2023-05-29T04:11:00+09:00,3.2,��,6.4,��,20.5,87.2,0,0,0,0,0,0,1000.2,1013.8
2023-05-29T04:12:00+09:00,3.1,��,6.9,��,20.6,87.3,0,0,0,0,0,0,1000.2,1013.8
2023-05-29T04:13:00+09:00,3.2,��,6.9,��,20.6,87.4,0,0,0,0,0,0,1000.2,1013.8
2023-05-29T04:14:00+09:00,3.3,��,7.8,��,20.6,87.4,0,0,0,0,0,0,1000.2,1013.8
2023-05-29T04:15:00+09:00,3.4,��,7.8,��,20.6,87.6,0,0,0,0,0,0,1000.2,1013.8
2023-05-29T04:16:00+09:00,3.4,��,7.8,��,20.6,87.6,0,0,0,0,0,0,1000.1,1013.7
2023-05-29T04:17:00+09:00,3.5,��,7.8,��,20.6,87.5,0,0,0,0,0,0,1000.2,1013.8
2023-05-29T04:18:00+09:00,3.6,��,7.8,��,20.6,87.5,0,0,0,0,0,0,1000.1,1013.7
2023-05-29T04:19:00+09:00,3.6,��,7.8,��,20.5,87.5,0,0,0,0,0,0,1000.1,1013.7
2023-05-29T04:20:00+09:00,3.5,��,7.8,��,20.5,87.5,0,0,0,0,0,0,1000.2,1013.8
2023-05-29T04:21:00+09:00,3.4,��,7.8,��,20.5,87.4,0,0,0,0,0,0,1000.2,1013.8
2023-05-29T04:22:00+09:00,3.1,��,7.8,��,20.4,87.4,0,0,0,0,0,0,1000.2,1013.8
2023-05-29T04:23:00+09:00,2.7,��,7.8,��,20.4,87.5,0,0,0,0,0,0,1000.2,1013.8
2023-05-29T04:24:00+09:00,2.4,��,7,��쐼,20.5,87.6,0,0,0,0,0,0,1000.2,1013.8
2023-05-29T04:25:00+09:00,2,��,7,��쐼,20.5,87.8,0,0,0,0,0,0,1000.2,1013.8
2023-05-29T04:26:00+09:00,1.9,��,5.9,��,20.4,87.8,0,0,0,0,0,0,1000.2,1013.8
2023-05-29T04:27:00+09:00,1.7,��쓌,5.9,��,20.5,87.7,0,0,0,0,0,0,1000.2,1013.8
2023-05-29T04:28:00+09:00,1.5,��쓌,5.5,��,20.5,87.8,0,0,0,0,0,0,1000.2,1013.8
2023-05-29T04:29:00+09:00,1.4,��쓌,5.5,��,20.4,87.9,0,0,0,0,0,0,1000.2,1013.8
2023-05-29T04:30:00+09:00,1.3,��쓌,3.9,��,20.4,87.9,0,0,0,0,0,0,1000.1,1013.7
2023-05-29T04:31:00+09:00,1.3,��쓌,3.9,��,20.5,88,0,0,0,0,0,0,1000.1,1013.7
2023-05-29T04:32:00+09:00,1.4,��쓌,5.3,�쓌,20.5,88,0,0,0,0,0,0,1000.1,1013.7
2023-05-29T04:33:00+09:00,1.6,��쓌,5.3,�쓌,20.5,87.9,0,0,0,0,0,0,1000.1,1013.7
2023-05-29T04:34:00+09:00,1.6,��쓌,5.3,�쓌,20.5,87.8,0,0,0,0,0,0,1000.1,1013.7
2023-05-29T04:35:00+09:00,1.6,��쓌,5.3,�쓌,20.5,87.7,0,0,0,0,0,0,1000,1013.6
2023-05-29T04:36:00+09:00,1.6,��쓌,5.3,�쓌,20.5,87.5,0,0,0,0,0,0,1000.1,1013.7
2023-05-29T04:37:00+09:00,1.7,��쓌,5.3,�쓌,20.4,87.5,0,0,0,0,0,0,1000.1,1013.7
2023-05-29T04:38:00+09:00,1.7,��쓌,5.3,�쓌,20.4,87.6,0,0,0,0,0,0,1000.1,1013.7
2023-05-29T04:39:00+09:00,1.7,��쓌,5.3,�쓌,20.4,87.7,0,0,0,0,0,0,1000.1,1013.7
2023-05-29T04:40:00+09:00,1.7,��쓌,5.3,�쓌,20.4,87.6,0,0,0,0,0,0,1000,1013.6
2023-05-29T04:41:00+09:00,1.7,��쓌,5.3,�쓌,20.4,87.6,0,0,0,0,0,0,1000.1,1013.7
2023-05-29T04:42:00+09:00,1.7,��쓌,5,��,20.4,87.8,0,0,0,0,0,0,1000.1,1013.7
2023-05-29T04:43:00+09:00,1.6,��쓌,5,��,20.5,87.8,0,0,0,0,0,0,1000.1,1013.7
2023-05-29T04:44:00+09:00,1.6,��쓌,5,��,20.4,87.5,0,0,0,0,0,0,1000.1,1013.7
2023-05-29T04:45:00+09:00,1.6,��쓌,5,��,20.4,87.4,0,0,0,0,0,0,1000.1,1013.7
2023-05-29T04:46:00+09:00,1.5,��쓌,5,��,20.4,87.4,0,0,0,0,0,0,1000.1,1013.7
2023-05-29T04:47:00+09:00,1.6,��쓌,5,��,20.5,87.4,0,0,0,0,0,0,1000.2,1013.8
2023-05-29T04:48:00+09:00,1.7,��쓌,5,��,20.5,87.5,0,0,0,0,0,0,1000.2,1013.8
2023-05-29T04:49:00+09:00,1.8,��쓌,5.3,��,20.5,87.5,0,0,0,0,0,0,1000.2,1013.8
2023-05-29T04:50:00+09:00,2,��,5.3,��,20.5,87.7,0,0,0,0,0,0,1000.2,1013.8
2023-05-29T04:51:00+09:00,2.1,��,5.3,��,20.5,87.5,0,0,0,0,0,0,1000.2,1013.8
2023-05-29T04:52:00+09:00,2,��,5.3,��,20.5,87.3,0,0,0,0,0,0,1000.2,1013.8
2023-05-29T04:53:00+09:00,1.9,��,5.3,��,20.5,87.2,0,0,0,0,0,0,1000.2,1013.8
2023-05-29T04:54:00+09:00,1.8,��,5.3,��,20.5,87.3,0,0,0,0,0,0,1000.2,1013.8
2023-05-29T04:55:00+09:00,1.9,��,5.3,��,20.5,87.4,0,0,0,0,0,0,1000.2,1013.8
2023-05-29T04:56:00+09:00,2,��,5.3,��,20.5,87.6,0,0,0,0,0,0,1000.3,1013.9
2023-05-29T04:57:00+09:00,1.9,��,5.3,��,20.5,87.7,0,0,0,0,0,0,1000.3,1013.9
2023-05-29T04:58:00+09:00,1.8,��,5.3,��,20.5,87.7,0,0,0,0,0,0,1000.3,1013.9
2023-05-29T04:59:00+09:00,1.6,��,5,��,20.5,87.7,0,0,0,0,0,0,1000.3,1013.9
2023-05-29T05:00:00+09:00,1.5,��,5,��,20.5,87.7,0,0,0,0,0,0,1000.3,1013.9
2023-05-29T05:01:00+09:00,1.4,��,5,��,20.5,87.5,0,0,0,0,0,0,1000.3,1013.9
2023-05-29T05:02:00+09:00,1.4,��,5,��,20.5,87.6,0,0,0,0,0,0,1000.3,1013.9
2023-05-29T05:03:00+09:00,1.4,��쓌,5,��,20.5,87.8,0,0,0,0,0,0,1000.4,1014
2023-05-29T05:04:00+09:00,1.6,��쓌,5,��,20.5,87.8,0,0,0,0,0,0,1000.4,1014
2023-05-29T05:05:00+09:00,1.4,��쓌,5,��,20.5,87.8,0,0,0,0,0,0,1000.4,1014
2023-05-29T05:06:00+09:00,1.4,��쓌,4.1,��쓌,20.5,87.9,0,0,0,0,0,0,1000.4,1014
2023-05-29T05:07:00+09:00,1.4,��쓌,4,��,20.5,88,0,0,0,0,0,0,1000.5,1014.1
2023-05-29T05:08:00+09:00,1.3,��쓌,4,��,20.5,88,0,0,0,0,0,0,1000.5,1014.1
2023-05-29T05:09:00+09:00,1.3,��쓌,3.6,��쓌,20.5,88,0,0,0,0,0,0,1000.4,1014
2023-05-29T05:10:00+09:00,1.2,��쓌,3.5,��쐼,20.5,88,0,0,0,0,0,0,1000.5,1014.1
2023-05-29T05:11:00+09:00,1.1,��쓌,3.5,��쐼,20.5,88,0,0,0,0,0,0,1000.5,1014.1
2023-05-29T05:12:00+09:00,1.2,��쓌,3.5,��쐼,20.5,88.1,0,0,0,0,0,0,1000.5,1014.1